Vorticity
16 20 20 18 10 10 20 23 19 12 15 20 38 18 22 17 -7 32 -24 -1 -3 0 23 -14 -7 19 34 20 -15 25 6 13 12 12 9 6 13 5 12 12 10 8 4
17 14 9 6 7 7 5 6 24 25 7 11 8 19 18 17 19 45 33 12 20 -2 10 13 -4 -15 9 -1 22 35 22 7 1 14 2 7 10 4 11 13 11 8 3
16 11 12 11 11 8 12 15 13 6 25 19 2 3 6 9 13 -5 19 15 22 14 11 12 -4 20 15 -4 14 6 2 22 30 0 11 5 10 9 6 11 7 6 5
15 12 9 10 15 14 14 10 13 18 14 10 6 22 18 11 10 12 8 8 7 12 14 12 23 3 13 -2 -9 1 5 12 21 6 -8 9 10 5 4 3 10 12 10
5 3 6 7 10 12 14 18 11 10 14 12 17 14 9 19 10 15 13 10 11 12 24 2 8 16 8 24 18 -2 -9 1 20 18 11 -7 -10 -19 3 15 6 -8 4
5 7 8 7 8 12 16 17 8 16 -8 -7 22 32 20 10 14 13 12 26 10 -1 -1 10 29 -5 23 11 12 7 1 10 -4 -4 20 30 11 -0 1 21 14 5 10
4 7 2 12 3 9 11 16 17 13 7 31 24 28 36 10 8 30 15 8 11 9 -1 18 13 8 -7 -4 5 2 -2 13 3 12 35 24 12 2 6 21 14 4 13
-0 3 9 2 0 11 11 15 16 7 11 20 27 25 23 35 23 -1 10 34 6 26 11 20 31 10 17 5 2 1 6 8 11 16 20 6 22 -15 48 20 4 18 6
5 3 0 0 5 5 10 11 12 11 18 18 31 20 26 57 36 15 9 4 16 -3 33 23 3 3 24 25 12 9 17 11 8 28 20 15 25 45 4 13 13 3 8
6 -4 8 5 2 -10 13 11 9 14 17 21 27 21 15 31 31 25 -0 29 14 -6 14 18 12 17 18 41 39 9 31 13 22 9 2 24 27 3 4 9 13 6 5
6 6 5 11 -1 12 19 7 8 17 15 21 23 22 14 24 12 19 18 -2 -4 26 17 31 20 25 19 6 25 40 -10 35 6 5 3 14 6 4 6 0 3 5 7
14 12 11 11 16 10 10 4 8 17 16 20 22 20 24 15 11 21 4 27 -1 6 16 10 27 -27 14 9 22 -1 10 32 11 1 12 20 4 2 5 8 9 8 -1
17 18 16 19 14 9 8 8 9 12 18 19 23 21 23 27 28 20 23 22 22 21 6 14 16 3 4 -3 36 23 46 1 10 8 19 6 6 18 10 10 10 4 4
15 15 13 16 15 15 12 10 11 9 19 22 21 20 21 23 16 14 20 33 10 5 18 19 14 30 39 26 28 3 17 4 -3 16 24 24 12 5 9 9 4 15 8
7 7 10 20 12 15 9 0 1 9 17 21 23 17 8 6 10 13 3 12 6 8 15 16 19 19 20 12 -5 11 -1 11 31 27 15 6 8 9 7 4 6 4 2
7 5 6 11 9 13 20 23 21 12 13 18 25 19 13 12 19 21 15 16 19 18 9 11 3 -4 -8 2 10 19 19 17 4 2 6 11 8 10 1 7 6 -2 16
6 5 4 6 8 11 24 32 29 11 10 16 23 21 15 8 7 17 24 18 22 15 20 25 23 20 19 22 22 18 16 8 10 7 3 9 2 1 14 -3 4 19 8
4 6 8 9 7 8 20 24 28 9 6 15 19 17 17 17 9 10 9 16 9 7 7 14 15 18 17 13 12 16 14 7 2 7 5 6 15 5 5 9 14 6 4
13 14 10 10 9 9 21 17 23 15 4 13 13 15 19 17 18 12 7 2 4 6 5 11 14 12 12 13 14 8 8 6 5 12 16 7 2 14 7 10 9 8 7
14 15 15 14 11 10 22 16 19 14 15 10 14 8 17 9 11 19 21 20 13 14 22 22 17 16 15 16 16 11 9 8 10 8 7 12 8 5 9 11 9 6 7
11 14 16 15 12 12 19 27 8 22 16 5 16 10 8 16 11 16 14 17 15 14 16 18 13 10 12 12 8 5 4 5 9 11 8 5 7 13 11 4 9 7 12
4 4 13 14 13 14 15 30 20 13 10 14 14 13 7 9 9 12 15 9 7 10 14 13 13 14 11 9 7 6 8 9 10 7 7 9 11 7 6 12 7 11 12
4 6 6 13 15 10 17 19 25 18 16 14 7 19 10 8 10 10 13 11 10 9 8 9 9 8 8 9 9 10 11 11 10 7 10 11 9 10 12 7 10 12 6
5 1 3 6 15 11 17 17 15 21 25 11 7 13 14 11 11 10 11 12 14 9 9 9 8 10 11 10 11 11 10 9 7 9 10 10 11 12 8 10 11 8 4
8 3 3 3 7 14 10 20 16 15 30 29 21 14 16 11 9 11 8 9 11 9 8 8 9 10 9 11 10 9 9 10 11 11 9 10 8 7 9 10 7 5 8
13 9 2 2 2 9 11 16 19 17 19 31 26 24 16 10 9 15 15 7 10 6 7 9 10 10 9 9 10 10 10 11 10 10 10 11 9 10 10 8 6 9 8
Height
2967 2968 2967 2965 2964 2962 2959 2958 2957 2955 2956 2956 2958 2960 2969 2972 2976 2979 2983 2988 2993 2998 3000 3004 3008 3015 3020 3020 3025 3030 3036 3042 3049 3060 3066 3068 3073 3077 3081 3086 3092 3094 3097
2957 2957 2956 2956 2955 2954 2953 2950 2947 2945 2946 2948 2949 2950 2952 2958 2961 2964 2970 2975 2981 2988 2991 2996 2999 3004 3012 3016 3019 3023 3028 3033 3039 3052 3056 3060 3064 3069 3074 3080 3084 3088 3090
2951 2950 2950 2949 2948 2946 2945 2943 2940 2938 2937 2939 2939 2940 2943 2946 2949 2953 2958 2961 2964 2973 2980 2984 2989 2996 3002 3007 3011 3015 3020 3025 3029 3039 3046 3050 3055 3059 3065 3071 3074 3078 3083
2945 2944 2943 2941 2940 2938 2936 2934 2932 2930 2929 2929 2929 2929 2932 2935 2939 2942 2947 2951 2954 2960 2966 2972 2977 2983 2992 2997 3000 3007 3012 3015 3021 3026 3032 3040 3046 3051 3055 3061 3067 3072 3077
2940 2939 2938 2936 2934 2930 2927 2925 2923 2921 2919 2918 2917 2917 2919 2921 2924 2931 2935 2939 2943 2949 2953 2959 2964 2972 2981 2986 2991 2994 2999 3005 3011 3017 3021 3029 3035 3038 3045 3054 3060 3065 3070
2936 2934 2933 2931 2928 2924 2920 2916 2913 2909 2906 2903 2899 2900 2903 2906 2910 2917 2920 2925 2931 2936 2943 2947 2953 2956 2966 2972 2979 2985 2990 2995 3001 3006 3013 3016 3025 3031 3039 3045 3050 3057 3065
2932 2930 2928 2925 2922 2918 2914 2910 2905 2901 2897 2890 2885 2882 2884 2889 2895 2901 2905 2912 2917 2923 2929 2935 2940 2945 2950 2960 2967 2973 2977 2985 2992 2997 3002 3008 3016 3023 3032 3035 3043 3050 3059
2927 2925 2922 2919 2916 2912 2908 2903 2898 2893 2886 2879 2874 2870 2868 2871 2878 2887 2894 2899 2904 2910 2914 2921 2927 2933 2939 2946 2956 2962 2968 2976 2982 2988 2996 3004 3011 3017 3025 3032 3038 3046 3048
2924 2921 2918 2915 2911 2906 2902 2897 2891 2884 2877 2870 2865 2860 2858 2856 2864 2875 2885 2889 2894 2899 2903 2909 2913 2918 2926 2931 2940 2947 2957 2964 2973 2982 2990 2997 3003 3008 3015 3023 3027 3034 3041
2920 2916 2913 2909 2905 2900 2896 2890 2883 2876 2869 2863 2857 2854 2853 2854 2857 2866 2875 2879 2885 2891 2895 2899 2904 2908 2915 2922 2929 2938 2947 2956 2963 2971 2979 2986 2993 3001 3011 3019 3025 3031 3038
2915 2911 2907 2903 2899 2894 2890 2885 2878 2871 2864 2857 2852 2850 2851 2852 2855 2859 2866 2872 2877 2882 2886 2890 2896 2903 2907 2913 2923 2932 2941 2949 2956 2966 2974 2979 2985 2993 3001 3010 3018 3026 3031
2909 2905 2901 2897 2893 2889 2885 2880 2873 2867 2861 2855 2850 2847 2848 2849 2851 2855 2860 2865 2871 2875 2879 2884 2889 2895 2901 2910 2919 2927 2937 2944 2951 2960 2967 2973 2979 2988 2997 3005 3013 3019 3024
2904 2899 2895 2891 2886 2883 2879 2875 2869 2863 2858 2853 2848 2846 2845 2846 2848 2851 2855 2859 2864 2870 2874 2879 2884 2892 2901 2910 2917 2925 2934 2942 2948 2955 2964 2971 2978 2987 2993 3001 3006 3014 3021
2900 2895 2891 2887 2882 2878 2874 2870 2865 2860 2855 2852 2848 2845 2844 2845 2847 2849 2852 2856 2860 2865 2871 2877 2883 2890 2896 2904 2913 2923 2934 2942 2948 2953 2959 2968 2976 2979 2988 2996 3002 3010 3016
2897 2893 2888 2883 2879 2875 2870 2866 2862 2858 2853 2849 2847 2845 2844 2845 2847 2850 2853 2856 2860 2864 2869 2875 2881 2888 2895 2903 2912 2921 2929 2937 2944 2950 2957 2963 2971 2977 2983 2991 2997 3004 3010
2895 2890 2885 2880 2875 2870 2864 2860 2856 2854 2850 2847 2845 2843 2843 2844 2846 2848 2851 2855 2859 2865 2871 2877 2882 2889 2896 2903 2910 2917 2924 2931 2938 2946 2954 2963 2968 2973 2980 2986 2992 2998 3003
2890 2885 2881 2876 2870 2864 2858 2853 2850 2849 2848 2846 2844 2842 2842 2843 2844 2847 2850 2854 2858 2863 2869 2875 2881 2887 2893 2900 2907 2913 2919 2926 2934 2943 2953 2958 2964 2970 2976 2981 2987 2990 2995
2887 2882 2877 2872 2867 2861 2855 2850 2847 2846 2845 2845 2844 2843 2842 2843 2844 2847 2850 2854 2859 2862 2868 2874 2880 2886 2892 2898 2905 2911 2917 2924 2931 2940 2948 2955 2961 2966 2971 2976 2980 2985 2988
2883 2878 2872 2867 2862 2857 2852 2848 2846 2845 2844 2843 2843 2843 2843 2843 2844 2847 2850 2854 2859 2864 2868 2874 2880 2885 2891 2897 2904 2910 2916 2924 2932 2939 2945 2951 2956 2961 2966 2971 2974 2978 2983
2877 2873 2867 2862 2857 2853 2849 2845 2843 2843 2843 2842 2843 2843 2843 2843 2844 2846 2849 2853 2857 2861 2866 2871 2877 2883 2889 2896 2903 2909 2915 2921 2928 2934 2941 2947 2952 2956 2961 2965 2969 2974 2979
2871 2867 2862 2857 2852 2848 2844 2841 2840 2840 2840 2840 2841 2842 2843 2844 2846 2848 2851 2853 2856 2861 2866 2871 2877 2883 2889 2894 2900 2906 2913 2919 2924 2931 2936 2941 2946 2951 2955 2960 2965 2969 2973
2867 2862 2858 2853 2848 2844 2841 2837 2835 2836 2837 2838 2839 2840 2841 2843 2846 2849 2852 2855 2858 2862 2866 2872 2878 2883 2889 2894 2899 2904 2910 2915 2921 2926 2931 2936 2941 2946 2951 2956 2959 2962 2967
2862 2858 2854 2849 2844 2840 2836 2834 2831 2830 2832 2834 2835 2836 2838 2841 2844 2848 2852 2855 2859 2862 2867 2871 2876 2881 2886 2891 2896 2901 2907 2913 2918 2923 2927 2932 2937 2941 2946 2950 2953 2957 2961
2856 2852 2850 2846 2841 2837 2833 2830 2828 2826 2826 2827 2830 2831 2833 2837 2840 2845 2849 2853 2857 2861 2865 2869 2874 2878 2883 2887 2893 2898 2902 2907 2912 2918 2923 2928 2932 2936 2940 2944 2949 2952 2955
2849 2846 2844 2841 2837 2833 2830 2826 2823 2821 2819 2820 2822 2825 2827 2831 2835 2839 2844 2849 2853 2857 2861 2865 2869 2874 2878 2883 2888 2893 2898 2903 2908 2913 2917 2922 2926 2931 2934 2939 2942 2946 2949
2839 2839 2837 2835 2832 2829 2826 2823 2820 2817 2815 2814 2815 2818 2821 2825 2829 2833 2838 2842 2847 2851 2856 2861 2865 2869 2874 2879 2884 2889 2894 2898 2903 2907 2912 2916 2920 2924 2928 2932 2936 2940 2943